AMAZONAS 5 (42934 NORAD) Tracking and Keplerian Element Data

This shows tracking and keplerian element data for the satellite.

Feedback or suggestion? Click here.




ElementValue
Catalog42934
NameAMAZONAS 5
Epoch Orbit428
Epoch Day315.03001109
Epoch Year2018
RAAN313.669
Inclination0.0312
Eccentricity0.0003088
Argument of Perigee302.0943
Mean Anonmoly104.2293
Mean Motion1.00273152
Decay Rate-2.86E-06
L11 42934U 17053A 18315.03001109 -.00000286 00000-0 00000-0 0 9997
L22 42934 0.0312 313.6690 0003088 302.0943 104.2293 1.00273152 4284

Live tracking and technical data element details for AMAZONAS 5 (NORAD 42934). AMAZONAS 5 can be tracked NOW for your location showing map with azimuth and elevation plus other details from your city location.

Track the satellite on the map from your city or location and see movement details for azimuth, elevation, latitude, longitude, range, height, and movement on the map or in text.







IsCatalogInMostPopularTable: catalog: 42934, numindb: 135
Update: records affected: 1



GetName: 42934 AMAZONAS 5

Hit Count: updated at: Mon, 12 Nov 2018 17:37:57 GMT